Terminal Aerodrome Forecast
Issued by NWS Anchorage, AK

Home | Current Version | Previous Version | Text Only | Print | Product List | Glossary On
Versions: 1 2 3 4 5 6 7 8 9 10 11 12 13 14 15 16 17 18 19 20 21 22 23 24 25 26 27 28 29 30 31 32 33 34 35 36 37 38 39 40 41 42 43
000
FTAK31 PANC 282339
TAFANC
TAF
PANC 282339Z 2900/3006 VRB05KT P6SM BKN080 OVC200 WS020/14045KT
     FM291000 36013KT P6SM OVC070 WS020/15040KT
     FM291800 36013KT P6SM OVC035 WS020/15045KT=

USA.gov is the U.S. government's official web portal to all federal, state and local government web resources and services.